ATHENA-FIDUS

Last updated on Tue Sep 16 2025 00:02:48 GMT+0000 (Coordinated Universal Time)

1 39509U 14006B 25258.59202932 .00000137 00000+0 00000+0 0 9990 2 39509 0.0208 125.5133 0001592 79.2182 40.9924 1.00270862 42330
UTC large
Height (km)
Speed (km/s)
/
Latitude / Longitude
Inclination (degrees)
Orbital Period (minutes)
Azimuth
Elevation
Range (km)
Doppler Factor

Next 0 passes for location: London (51.5072 / 0.1276)

Sorry there are no passes over London.